Nashua, NH

12:24 PM EDT on October 14, 2019 (GMT -0400)
Boire

Weather History for KASH - May, 2019

Change the Weather History Date:

Monday, May 6, 2019

  Actual Average Record
Temperature  
Mean Temperature 56 °F -  
Max Temperature 68 °F 63 °F 83 °F (1960)
Min Temperature 45 °F 40 °F 26 °F (1961)
Degree Days  
Heating Degree Days 10    
Growing Degree Days 6 (Base 50)    
Moisture  
Dew Point 43 °F    
Average Humidity 69    
Maximum Humidity 100    
Minimum Humidity 32    
Precipitation  
Precipitation 0.00 in - - ()
Sea Level Pressure  
Sea Level Pressure 30.04 in    
Wind  
Wind Speed 5 mph (ENE)    
Max Wind Speed 12 mph    
Max Gust Speed 16 mph    
Visibility 10 miles    
Events      
Averages and records for this station are not official NWS values.
T = Trace of Precipitation, MM = Missing Value Source: NWS Daily Summary

Daily Weather History Graph

Daily Weather History Graph

Search for Another Location

Airport or City:

Astronomy

May. 06, 2019 Rise Set
Actual Time 5:34 AM EDT 7:51 PM EDT
Civil Twilight 5:02 AM EDT 8:23 PM EDT
Nautical Twilight 4:23 AM EDT 9:02 PM EDT
Astronomical Twilight 3:40 AM EDT 9:45 PM EDT
Moon 6:54 AM EDT (5/6) 9:47 PM EDT (5/6)
Length of Visible Light 15h 20m
Length of Day
14h 17m
Waxing Crescent, 3% of the Moon is Illuminated
May 6
Waxing Crescent
May 11
First Quarter
May 18
Full
May 26
Last Quarter
Jun 3
New

Hourly Weather History & Observations

Time (EDT) Temp. Dew Point Humidity Pressure Visibility Wind Dir Wind Speed Gust Speed Precip Events Conditions
12:56 AM 50.0 °F 48.0 °F 93% 29.96 in 10.0 mi NW 3.5 mph - N/A   Clear
1:56 AM 48.9 °F 48.0 °F 97% 29.95 in 10.0 mi Calm Calm - N/A   Clear
2:56 AM 48.9 °F 48.0 °F 97% 29.95 in 10.0 mi NNW 4.6 mph - N/A   Clear
3:56 AM 48.0 °F 46.9 °F 96% 29.96 in 10.0 mi NW 4.6 mph - N/A   Clear
4:56 AM 46.9 °F 46.9 °F 100% 29.96 in 10.0 mi NW 5.8 mph - N/A   Mostly Cloudy
5:56 AM 45.0 °F 45.0 °F 100% 29.96 in 10.0 mi Calm Calm - N/A   Clear
6:56 AM 48.0 °F 46.9 °F 96% 29.99 in 10.0 mi Variable 3.5 mph - N/A   Overcast
7:56 AM 50.0 °F 46.4 °F 87% 29.98 in 10.0 mi NE 6.9 mph - N/A   Mostly Cloudy
8:56 AM 51.8 °F 46.4 °F 82% 30.04 in 10.0 mi North 8.1 mph - N/A   Mostly Cloudy
9:15 AM 53.6 °F 46.4 °F 77% 30.00 in 10.0 mi East 8.1 mph - N/A   Mostly Cloudy
9:56 AM 53.6 °F 46.4 °F 77% 30.02 in 10.0 mi NE 5.8 mph - N/A   Overcast
10:56 AM 55.4 °F 46.4 °F 72% 30.02 in 10.0 mi NE 4.6 mph - N/A   Mostly Cloudy
11:20 AM 57.2 °F 46.4 °F 67% 30.03 in 10.0 mi Variable 4.6 mph - N/A   Mostly Cloudy
11:56 AM 60.8 °F 46.4 °F 59% 30.03 in 10.0 mi Variable 5.8 mph - N/A   Mostly Cloudy
12:56 PM 63.0 °F 46.0 °F 54% 30.05 in 10.0 mi Variable 6.9 mph - N/A   Mostly Cloudy
1:56 PM 66.9 °F 45.0 °F 45% 30.06 in 10.0 mi East 11.5 mph - N/A   Mostly Cloudy
2:56 PM 66.9 °F 44.1 °F 44% 30.06 in 10.0 mi Variable 6.9 mph - N/A   Scattered Clouds
3:56 PM 66.9 °F 36.0 °F 32% 30.06 in 10.0 mi ESE 9.2 mph 16.1 mph N/A   Scattered Clouds
4:56 PM 64.9 °F 36.0 °F 34% 30.08 in 10.0 mi East 11.5 mph 16.1 mph N/A   Scattered Clouds
5:56 PM 64.9 °F 35.1 °F 33% 30.09 in 10.0 mi ESE 8.1 mph - N/A   Partly Cloudy
6:56 PM 63.0 °F 35.1 °F 35% 30.10 in 10.0 mi ESE 10.4 mph - N/A   Clear
7:56 PM 57.9 °F 39.0 °F 49% 30.12 in 10.0 mi ESE 8.1 mph - N/A   Clear
8:56 PM 55.0 °F 37.9 °F 53% 30.14 in 10.0 mi SE 5.8 mph - N/A   Clear
9:56 PM 51.1 °F 39.9 °F 66% 30.17 in 10.0 mi Calm Calm - N/A   Clear
10:56 PM 48.9 °F 37.9 °F 66% 30.19 in 10.0 mi Calm Calm - N/A   Clear
11:56 PM 45.0 °F 39.9 °F 82% 30.17 in 10.0 mi Calm Calm - N/A   Clear